Retour au catalogue

COSMOS 1176 COOLANT

ActifLEO
NORAD 29019·DEBRIS·🇷🇺 Russia

Lancé Apr 29, 1980 depuis Baikonur Cosmodrome

Loading…

Prochains Passages (prochaines 24 heures)

TLE

FraisSource: Space-Track

Époque: Sep 14, 2026, 04:05 UTC

1 29019U 80034F   26257.17038665  .00000401  00000-0  30360-3 0  9994
2 29019  64.8254 162.9662 0050865 234.4031 125.2294 14.05081238636366

Suivez COSMOS 1176 COOLANT en temps réel avec AllMySat

Download on the App Store